^^
Station Historical Data
Daily Summary for Nil La, TWC- Units:  English    Metric   Both
« Previous Day
Next Day »
Daily Weekly Monthly Yearly Custom
  High: Low: Average:
Temperature: TemperatureF °F 63.7 °F 67.4 °F
Dew Point: DewpointF °F 47.8 °F 51.3 °F
Humidity: Humidity% 44% 57%
Wind Speed: WindSpeedMPHmph 0mph 4.1mph
Wind Gust: WindSpeedGustMPHmph - -
Wind- - East
Pressure: PressureIn in 29.75 in -
Precipitation: 0 in    
Historical Graphs
 
 
Tabular Data for Nil La, TWC-
Time Temperature Dew Point Pressure Wind Wind Speed Wind Gust Humidity Rainfall Rate (Hourly) solar Conditions
TemperatureF °F DewpointF °F PressureIn in Calm     Humidity% HourlyPrecipIn in SolarRadiationWatts/m^2 W/m2 Conditions
00:04 71.2 °F 48.7 °F 29.79 in Calm   1 mph 45% 0 in 0.00 W/m2
00:09 71.2 °F 48.7 °F 29.79 in North 0.9 mph 2 mph 45% 0 in 0.00 W/m2
00:14 71.1 °F 48.6 °F 29.79 in Calm   4 mph 45% 0 in 0.00 W/m2
00:19 71.1 °F 48.6 °F 29.80 in NNE 0.9 mph 3 mph 45% 0 in 0.00 W/m2
00:24 71.1 °F 48.6 °F 29.80 in NNW 0.9 mph 6 mph 45% 0 in 0.00 W/m2
00:29 71.1 °F 48.6 °F 29.80 in NNW 2 mph 2 mph 45% 0 in 0.00 W/m2
00:33 71.1 °F 48.6 °F 29.80 in NNW 4.9 mph 6 mph 45% 0 in 0.00 W/m2
00:39 71.1 °F 48.6 °F 29.80 in NE 4 mph 4 mph 45% 0 in 0.00 W/m2
00:44 70.9 °F 47.8 °F 29.80 in NE 2 mph 7 mph 44% 0 in 0.00 W/m2
00:49 70.9 °F 48.6 °F 29.80 in North 8.9 mph 9 mph 45% 0 in 0.00 W/m2
00:54 70.5 °F 48.2 °F 29.80 in ENE 0.9 mph 9 mph 45% 0 in 0.00 W/m2
00:59 70.5 °F 48.2 °F 29.80 in Calm   1 mph 45% 0 in 0.00 W/m2
01:04 70.3 °F 48.6 °F 29.80 in NNE 0.9 mph 4 mph 46% 0 in 0.00 W/m2
01:09 70.3 °F 48.6 °F 29.79 in North 2 mph 4 mph 46% 0 in 0.00 W/m2
01:14 70.2 °F 48.4 °F 29.79 in NNE 0.9 mph 5 mph 46% 0 in 0.00 W/m2
01:19 70.2 °F 48.4 °F 29.78 in NNE 2.9 mph 6 mph 46% 0 in 0.00 W/m2
01:24 70 °F 48.7 °F 29.78 in Calm     47% 0 in 0.00 W/m2
01:29 70 °F 48.7 °F 29.78 in Calm   1 mph 47% 0 in 0.00 W/m2
01:34 69.8 °F 48.7 °F 29.78 in Calm     47% 0 in 0.00 W/m2
01:39 69.8 °F 48.7 °F 29.78 in Calm     47% 0 in 0.00 W/m2
01:44 69.6 °F 48.6 °F 29.78 in Calm     47% 0 in 0.00 W/m2
01:49 69.6 °F 48.6 °F 29.78 in NNE 0.9 mph 1 mph 47% 0 in 0.00 W/m2
01:54 69.4 °F 48.4 °F 29.78 in NE 2 mph 2 mph 47% 0 in 0.00 W/m2
01:59 69.4 °F 48.4 °F 29.78 in ENE 2 mph 2 mph 47% 0 in 0.00 W/m2
02:04 69.3 °F 48.2 °F 29.78 in Calm   3 mph 47% 0 in 0.00 W/m2
02:08 69.3 °F 48.2 °F 29.78 in East 4 mph 4 mph 47% 0 in 0.00 W/m2
02:13 69.3 °F 48.2 °F 29.77 in East 0.9 mph 4 mph 47% 0 in 0.00 W/m2
02:19 69.1 °F 48 °F 29.77 in ENE 4 mph 5 mph 47% 0 in 0.00 W/m2
02:24 69.1 °F 48 °F 29.77 in Calm   1 mph 47% 0 in 0.00 W/m2
02:29 69.1 °F 48.6 °F 29.77 in NE 4 mph 9 mph 48% 0 in 0.00 W/m2
02:34 69.1 °F 49.1 °F 29.77 in NE 4 mph 5 mph 49% 0 in 0.00 W/m2
02:39 68.9 °F 48.9 °F 29.76 in SE 6 mph 11 mph 49% 0 in 0.00 W/m2
02:44 68.7 °F 49.3 °F 29.76 in ENE 2.9 mph 7 mph 50% 0 in 0.00 W/m2
02:49 68.5 °F 49.1 °F 29.76 in NNE 0.9 mph 6 mph 50% 0 in 0.00 W/m2
02:54 68.4 °F 49.5 °F 29.76 in NNE 2 mph 7 mph 51% 0 in 0.00 W/m2
02:59 68.4 °F 49.5 °F 29.75 in NE 2 mph 6 mph 51% 0 in 0.00 W/m2
03:04 68.2 °F 49.8 °F 29.75 in East 2 mph 6 mph 52% 0 in 0.00 W/m2
03:09 67.8 °F 50 °F 29.75 in NE 4.9 mph 7 mph 53% 0 in 0.00 W/m2
03:14 67.8 °F 50 °F 29.75 in NNE 4 mph 10 mph 53% 0 in 0.00 W/m2
03:19 67.6 °F 49.8 °F 29.75 in NE 0.9 mph 7 mph 53% 0 in 0.00 W/m2
03:24 67.5 °F 50.2 °F 29.75 in NNE 0.9 mph 7 mph 54% 0 in 0.00 W/m2
03:29 67.5 °F 50.2 °F 29.75 in East 4.9 mph 9 mph 54% 0 in 0.00 W/m2
03:34 67.3 °F 50 °F 29.76 in ESE 2 mph 9 mph 54% 0 in 0.00 W/m2
03:39 67.1 °F 49.8 °F 29.75 in Calm   4 mph 54% 0 in 0.00 W/m2
03:44 66.9 °F 49.8 °F 29.75 in Calm   5 mph 54% 0 in 0.00 W/m2
03:48 66.9 °F 50.2 °F 29.75 in East 2 mph 6 mph 55% 0 in 0.00 W/m2
03:54 66.7 °F 50 °F 29.75 in ENE 4 mph 7 mph 55% 0 in 0.00 W/m2
03:59 66.6 °F 49.8 °F 29.76 in ENE 0.9 mph 7 mph 55% 0 in 0.00 W/m2
04:04 66.6 °F 49.8 °F 29.76 in NNE 4.9 mph 9 mph 55% 0 in 0.00 W/m2
04:09 66.4 °F 49.6 °F 29.76 in NE 2 mph 4 mph 55% 0 in 0.00 W/m2
04:14 66.4 °F 49.6 °F 29.77 in NNE 0.9 mph 6 mph 55% 0 in 0.00 W/m2
04:19 66.4 °F 49.6 °F 29.77 in Calm   1 mph 55% 0 in 0.00 W/m2
04:24 66.2 °F 49.6 °F 29.78 in Calm   1 mph 55% 0 in 0.00 W/m2
04:28 66 °F 49.5 °F 29.78 in Calm   3 mph 55% 0 in 0.00 W/m2
04:34 66 °F 49.5 °F 29.78 in Calm   3 mph 55% 0 in 0.00 W/m2
04:39 65.8 °F 49.3 °F 29.78 in Calm   5 mph 55% 0 in 0.00 W/m2
04:44 65.8 °F 49.3 °F 29.78 in Calm   4 mph 55% 0 in 0.00 W/m2
04:49 65.8 °F 49.3 °F 29.78 in ESE 2.9 mph 5 mph 55% 0 in 0.00 W/m2
04:54 65.7 °F 49.5 °F 29.78 in ESE 2 mph 3 mph 56% 0 in 0.00 W/m2
04:59 65.7 °F 49.5 °F 29.78 in ENE 0.9 mph 4 mph 56% 0 in 0.00 W/m2
05:04 65.5 °F 49.3 °F 29.79 in NNE 0.9 mph 5 mph 56% 0 in 0.00 W/m2
05:09 65.5 °F 49.3 °F 29.79 in Calm   1 mph 56% 0 in 0.00 W/m2
05:14 65.5 °F 49.3 °F 29.79 in NE 4 mph 4 mph 56% 0 in 0.00 W/m2
05:19 65.5 °F 50.4 °F 29.79 in NNE 2 mph 5 mph 58% 0 in 0.00 W/m2
05:23 65.3 °F 50.5 °F 29.79 in Calm   5 mph 59% 0 in 0.00 W/m2
05:29 65.3 °F 50.5 °F 29.80 in NE 2.9 mph 7 mph 59% 0 in 0.00 W/m2
05:34 65.1 °F 50.9 °F 29.80 in NE 2.9 mph 3 mph 60% 0 in 0.00 W/m2
05:39 65.1 °F 51.3 °F 29.80 in ENE 4 mph 12 mph 61% 0 in 0.00 W/m2
05:44 64.9 °F 51.6 °F 29.81 in NE 2.9 mph 8 mph 62% 0 in 0.00 W/m2
05:49 64.8 °F 52.3 °F 29.81 in NE 6 mph 13 mph 64% 0 in 0.00 W/m2
05:54 64.6 °F 52.2 °F 29.82 in North 4 mph 4 mph 64% 0 in 0.00 W/m2
05:59 64.6 °F 52.5 °F 29.82 in ENE 2.9 mph 12 mph 65% 0 in 0.00 W/m2
06:03 64.6 °F 52.9 °F 29.82 in NE 2 mph 9 mph 66% 0 in 0.00 W/m2
06:09 64.4 °F 52.9 °F 29.82 in NNE 2.9 mph 8 mph 66% 0 in 0.00 W/m2
06:14 64.2 °F 53.1 °F 29.82 in NE 4 mph 8 mph 67% 0 in 0.00 W/m2
06:19 64.2 °F 53.1 °F 29.82 in ENE 6 mph 7 mph 67% 0 in 0.00 W/m2
06:24 64.2 °F 53.4 °F 29.82 in NE 2 mph 10 mph 68% 0 in 0.00 W/m2
06:29 64 °F 53.2 °F 29.83 in ENE 2 mph 5 mph 68% 0 in 5.00 W/m2
06:34 64 °F 53.6 °F 29.83 in ENE 4 mph 7 mph 69% 0 in 9.00 W/m2
06:39 64 °F 53.6 °F 29.83 in NNE 2.9 mph 6 mph 69% 0 in 7.00 W/m2
06:44 64 °F 53.6 °F 29.83 in ENE 4 mph 6 mph 69% 0 in 18.00 W/m2
06:48 64 °F 53.6 °F 29.83 in East 2.9 mph 8 mph 69% 0 in 14.00 W/m2
06:54 63.9 °F 53.4 °F 29.84 in North 4 mph 8 mph 69% 0 in 21.00 W/m2
06:59 63.9 °F 53.4 °F 29.84 in North 6.9 mph 12 mph 69% 0 in 28.00 W/m2
07:04 63.9 °F 53.4 °F 29.84 in NE 4 mph 7 mph 69% 0 in 42.00 W/m2
07:09 63.9 °F 53.1 °F 29.84 in NE 4.9 mph 11 mph 68% 0 in 39.00 W/m2
07:14 63.7 °F 52.9 °F 29.84 in ENE 2 mph 5 mph 68% 0 in 46.00 W/m2
07:19 63.9 °F 53.1 °F 29.85 in Calm   10 mph 68% 0 in 51.00 W/m2
07:24 63.9 °F 53.1 °F 29.85 in ENE 6 mph 6 mph 68% 0 in 46.00 W/m2
07:29 63.9 °F 53.1 °F 29.85 in NE 4.9 mph 9 mph 68% 0 in 42.00 W/m2
07:34 63.9 °F 53.1 °F 29.85 in East 4 mph 5 mph 68% 0 in 79.00 W/m2
07:38 63.9 °F 53.1 °F 29.85 in NNE 4.9 mph 9 mph 68% 0 in 65.00 W/m2
07:44 64 °F 53.2 °F 29.85 in North 4.9 mph 11 mph 68% 0 in 47.00 W/m2
07:49 63.9 °F 53.1 °F 29.86 in NNE 4.9 mph 7 mph 68% 0 in 79.00 W/m2
07:54 63.9 °F 53.4 °F 29.86 in NNW 6 mph 9 mph 69% 0 in 100.00 W/m2
07:59 64 °F 53.2 °F 29.86 in NNE 2.9 mph 14 mph 68% 0 in 127.00 W/m2
08:04 64 °F 53.2 °F 29.86 in NNW 4.9 mph 7 mph 68% 0 in 113.00 W/m2
08:09 64.2 °F 53.1 °F 29.86 in NE 2 mph 10 mph 67% 0 in 148.00 W/m2
08:14 64.4 °F 53.2 °F 29.86 in NNE 10.1 mph 10 mph 67% 0 in 179.00 W/m2
08:19 64.6 °F 53.4 °F 29.86 in NE 6.9 mph 13 mph 67% 0 in 165.00 W/m2
08:24 64.6 °F 53.4 °F 29.86 in North 6 mph 9 mph 67% 0 in 192.00 W/m2
08:29 64.8 °F 53.6 °F 29.87 in NE 6.9 mph 16 mph 67% 0 in 149.00 W/m2
08:34 64.6 °F 53.4 °F 29.87 in NE 6.9 mph 10 mph 67% 0 in 158.00 W/m2
08:39 64.8 °F 53.6 °F 29.87 in ENE 2.9 mph 12 mph 67% 0 in 127.00 W/m2
08:44 64.6 °F 53.4 °F 29.87 in NE 4.9 mph 15 mph 67% 0 in 206.00 W/m2
08:49 64.8 °F 53.6 °F 29.87 in NE 4.9 mph 7 mph 67% 0 in 264.00 W/m2
08:54 65.1 °F 53.4 °F 29.87 in North 4.9 mph 8 mph 66% 0 in 121.00 W/m2
08:59 65.5 °F 53.8 °F 29.87 in North 8.1 mph 10 mph 66% 0 in 91.00 W/m2
09:04 65.1 °F 53.4 °F 29.88 in NNW 6 mph 11 mph 66% 0 in 81.00 W/m2
09:08 65.1 °F 53.4 °F 29.87 in North 8.1 mph 9 mph 66% 0 in 134.00 W/m2
09:14 65.1 °F 53.4 °F 29.87 in NNE 6.9 mph 16 mph 66% 0 in 88.00 W/m2
09:19 65.1 °F 53.4 °F 29.88 in NE 4.9 mph 10 mph 66% 0 in 128.00 W/m2
09:24 65.3 °F 53.6 °F 29.87 in NE 4.9 mph 11 mph 66% 0 in 274.00 W/m2
09:29 65.5 °F 53.8 °F 29.88 in NE 6 mph 9 mph 66% 0 in 211.00 W/m2
09:34 65.7 °F 54 °F 29.87 in ENE 2.9 mph 11 mph 66% 0 in 213.00 W/m2
09:39 65.8 °F 54.1 °F 29.87 in NW 2 mph 8 mph 66% 0 in 202.00 W/m2
09:44 66 °F 54 °F 29.87 in NE 8.1 mph 12 mph 65% 0 in 193.00 W/m2
09:49 66.2 °F 53.6 °F 29.88 in NNE 11 mph 14 mph 64% 0 in 172.00 W/m2
09:54 66 °F 53.1 °F 29.87 in ENE 2.9 mph 15 mph 63% 0 in 130.00 W/m2
09:59 66 °F 53.4 °F 29.87 in NNW 2 mph 10 mph 64% 0 in 156.00 W/m2
10:03 66 °F 53.1 °F 29.88 in NE 8.9 mph 19 mph 63% 0 in 174.00 W/m2
10:09 66.2 °F 53.6 °F 29.88 in NE 2.9 mph 7 mph 64% 0 in 287.00 W/m2
10:14 66.6 °F 53.6 °F 29.88 in North 10.1 mph 13 mph 63% 0 in 248.00 W/m2
10:19 66.7 °F 53.2 °F 29.88 in North 4.9 mph 11 mph 62% 0 in 251.00 W/m2
10:24 66.7 °F 53.2 °F 29.88 in NE 10.1 mph 12 mph 62% 0 in 156.00 W/m2
10:29 66.6 °F 53.6 °F 29.88 in NNE 6 mph 10 mph 63% 0 in 120.00 W/m2
10:34 66 °F 53.4 °F 29.88 in NNW 10.1 mph 22 mph 64% 0 in 130.00 W/m2
10:39 65.7 °F 53.6 °F 29.88 in North 2.9 mph 11 mph 65% 0 in 162.00 W/m2
10:44 65.5 °F 53.4 °F 29.88 in NNW 4 mph 8 mph 65% 0 in 292.00 W/m2
10:49 65.7 °F 53.6 °F 29.88 in NNW 4 mph 13 mph 65% 0 in 218.00 W/m2
10:54 66 °F 53.4 °F 29.88 in North 8.1 mph 10 mph 64% 0 in 146.00 W/m2
10:59 65.8 °F 53.8 °F 29.88 in NW 4 mph 18 mph 65% 0 in 134.00 W/m2
11:04 65.7 °F 54 °F 29.88 in NNW 2.9 mph 7 mph 66% 0 in 128.00 W/m2
11:09 65.5 °F 53.8 °F 29.88 in NNW 6.9 mph 11 mph 66% 0 in 193.00 W/m2
11:14 65.5 °F 53.8 °F 29.87 in NNE 6.9 mph 14 mph 66% 0 in 209.00 W/m2
11:19 65.7 °F 53.6 °F 29.88 in NNE 6.9 mph 15 mph 65% 0 in 251.00 W/m2
11:24 66 °F 53.4 °F 29.88 in North 6.9 mph 9 mph 64% 0 in 111.00 W/m2
11:29 66 °F 53.4 °F 29.88 in NNE 4.9 mph 12 mph 64% 0 in 146.00 W/m2
11:34 65.8 °F 53.8 °F 29.88 in NNE 2.9 mph 11 mph 65% 0 in 181.00 W/m2
11:39 65.7 °F 54 °F 29.88 in ENE 6 mph 7 mph 66% 0 in 165.00 W/m2
11:44 65.7 °F 54 °F 29.88 in NNW 0.9 mph 7 mph 66% 0 in 239.00 W/m2
11:49 65.7 °F 53.6 °F 29.88 in NNE 6 mph 6 mph 65% 0 in 151.00 W/m2
11:54 66 °F 53.4 °F 29.88 in NE 6.9 mph 15 mph 64% 0 in 204.00 W/m2
11:59 66.2 °F 53.2 °F 29.88 in North 6.9 mph 7 mph 63% 0 in 316.00 W/m2
12:04 66.6 °F 53.1 °F 29.88 in NNE 6.9 mph 13 mph 62% 0 in 239.00 W/m2
12:08 66.9 °F 53.4 °F 29.88 in North 4.9 mph 8 mph 62% 0 in 225.00 W/m2
12:14 67.3 °F 52.9 °F 29.88 in East 4.9 mph 8 mph 60% 0 in 211.00 W/m2
12:19 67.5 °F 52.7 °F 29.87 in East 2 mph 9 mph 59% 0 in 185.00 W/m2
12:24 67.8 °F 52.5 °F 29.87 in ESE 4 mph 12 mph 58% 0 in 225.00 W/m2
12:29 68.2 °F 52.3 °F 29.87 in ESE 2 mph 13 mph 57% 0 in 283.00 W/m2
12:34 68.2 °F 52.3 °F 29.87 in NE 0.9 mph 13 mph 57% 0 in 188.00 W/m2
12:39 68.4 °F 52.5 °F 29.87 in NE 8.9 mph 15 mph 57% 0 in 206.00 W/m2
12:44 68.4 °F 52.5 °F 29.87 in ENE 10.1 mph 13 mph 57% 0 in 213.00 W/m2
12:49 68.4 °F 52.5 °F 29.87 in NE 6.9 mph 11 mph 57% 0 in 178.00 W/m2
12:54 68.4 °F 52.5 °F 29.87 in NE 2 mph 10 mph 57% 0 in 176.00 W/m2
12:59 68.5 °F 52.7 °F 29.87 in NE 6.9 mph 12 mph 57% 0 in 207.00 W/m2
13:04 68.7 °F 52.9 °F 29.86 in NE 2 mph 7 mph 57% 0 in 320.00 W/m2
13:09 69.3 °F 52.9 °F 29.86 in ENE 6 mph 12 mph 56% 0 in 322.00 W/m2
13:14 69.6 °F 53.2 °F 29.86 in NE 4 mph 10 mph 56% 0 in 288.00 W/m2
13:19 70 °F 52.5 °F 29.85 in WNW 12.1 mph 16 mph 54% 0 in 399.00 W/m2
13:24 70.3 °F 52.9 °F 29.85 in NNE 17.9 mph 20 mph 54% 0 in 403.00 W/m2
13:29 70.5 °F 53.1 °F 29.85 in NE 11 mph 12 mph 54% 0 in 283.00 W/m2
13:34 70.9 °F 52.9 °F 29.85 in NE 6.9 mph 11 mph 53% 0 in 489.00 W/m2
13:39 71.1 °F 52.5 °F 29.85 in NE 6 mph 15 mph 52% 0 in 327.00 W/m2
13:44 71.1 °F 52 °F 29.84 in NNE 6.9 mph 13 mph 51% 0 in 455.00 W/m2
13:49 71.2 °F 52.2 °F 29.84 in North 6 mph 11 mph 51% 0 in 278.00 W/m2
13:54 71.6 °F 52.5 °F 29.85 in North 10.1 mph 15 mph 51% 0 in 214.00 W/m2
13:59 71.6 °F 52.5 °F 29.85 in NE 4 mph 7 mph 51% 0 in 202.00 W/m2
14:04 71.4 °F 52.9 °F 29.85 in ENE 4 mph 12 mph 52% 0 in 230.00 W/m2
14:09 71.1 °F 52 °F 29.84 in NE 8.1 mph 15 mph 51% 0 in 336.00 W/m2
14:14 71.1 °F 52.5 °F 29.84 in NE 2.9 mph 12 mph 52% 0 in 332.00 W/m2
14:19 71.2 °F 52.7 °F 29.84 in North 10.1 mph 11 mph 52% 0 in 427.00 W/m2
14:24 71.6 °F 52.5 °F 29.84 in NNE 4 mph 12 mph 51% 0 in 373.00 W/m2
14:29 72 °F 52.3 °F 29.84 in NNE 6 mph 11 mph 50% 0 in 638.00 W/m2
14:34 72.3 °F 52.2 °F 29.83 in ENE 4.9 mph 10 mph 49% 0 in 431.00 W/m2
14:39 72.7 °F 51.8 °F 29.83 in NNE 4 mph 10 mph 48% 0 in 357.00 W/m2
14:43 72.9 °F 52 °F 29.83 in NE 2 mph 14 mph 48% 0 in 406.00 W/m2
14:49 73 °F 51.6 °F 29.83 in NNE 6.9 mph 11 mph 47% 0 in 232.00 W/m2
14:54 72.7 °F 51.8 °F 29.83 in NNE 6.9 mph 14 mph 48% 0 in 258.00 W/m2
14:59 72.3 °F 52.2 °F 29.83 in NE 6 mph 8 mph 49% 0 in 262.00 W/m2
15:04 72.3 °F 51.4 °F 29.83 in NW 6 mph 9 mph 48% 0 in 213.00 W/m2
15:09 72.1 °F 51.4 °F 29.83 in NE 4 mph 13 mph 48% 0 in 204.00 W/m2
15:14 72 °F 51.3 °F 29.82 in ENE 2 mph 7 mph 48% 0 in 220.00 W/m2
15:19 72.1 °F 51.4 °F 29.82 in North 8.1 mph 10 mph 48% 0 in 248.00 W/m2
15:24 72.3 °F 51.4 °F 29.82 in NNW 2.9 mph 7 mph 48% 0 in 225.00 W/m2
15:29 72.5 °F 51.6 °F 29.82 in ENE 4.9 mph 9 mph 48% 0 in 237.00 W/m2
15:34 72.7 °F 51.8 °F 29.82 in NE 6 mph 16 mph 48% 0 in 478.00 W/m2
15:39 72.9 °F 51.4 °F 29.82 in WNW 0.9 mph 7 mph 47% 0 in 257.00 W/m2
15:44 72.9 °F 51.4 °F 29.81 in NE 0.9 mph 6 mph 47% 0 in 316.00 W/m2
15:49 73 °F 51.1 °F 29.81 in NNE 8.9 mph 13 mph 46% 0 in 223.00 W/m2
15:54 72.9 °F 50.9 °F 29.81 in NNW 8.9 mph 13 mph 46% 0 in 190.00 W/m2
15:59 72.7 °F 51.3 °F 29.81 in NE 4.9 mph 15 mph 47% 0 in 193.00 W/m2
16:04 72.3 °F 50.9 °F 29.81 in NW 11 mph 12 mph 47% 0 in 123.00 W/m2
16:09 72.3 °F 50.9 °F 29.81 in NE 11 mph 14 mph 47% 0 in 171.00 W/m2
16:14 72.1 °F 50.7 °F 29.82 in North 4 mph 12 mph 47% 0 in 174.00 W/m2
16:19 72.1 °F 51.4 °F 29.82 in NNE 4.9 mph 7 mph 48% 0 in 132.00 W/m2
16:24 72.1 °F 50.7 °F 29.81 in NE 2.9 mph 6 mph 47% 0 in 216.00 W/m2
16:28 72.3 °F 50.9 °F 29.81 in NNE 4 mph 10 mph 47% 0 in 225.00 W/m2
Olympia, Windhoek, Namibia
Compliments of Weather Underground - 3 mb